Page, AZ

8:46 PM MDT on April 30, 2017 (GMT -0600)
Page Municipal

Weather History for KPGA - November, 2011

Change the Weather History Date:

Tuesday, November 1, 2011

  Actual Average Record
Temperature  
Mean Temperature 58 °F -  
Max Temperature 72 °F 60 °F 75 °F (1966)
Min Temperature 44 °F 40 °F 28 °F (1972)
Degree Days  
Heating Degree Days 7    
Growing Degree Days 8 (Base 50)    
Moisture  
Dew Point 24 °F    
Average Humidity 34    
Maximum Humidity 57    
Minimum Humidity 13    
Precipitation  
Precipitation 0.00 in - - ()
Sea Level Pressure  
Sea Level Pressure 29.89 in    
Wind  
Wind Speed 5 mph (WNW)    
Max Wind Speed 20 mph    
Max Gust Speed 31 mph    
Visibility 10 miles    
Events      
Averages and records for this station are not official NWS values.
T = Trace of Precipitation, MM = Missing Value Source: NWS Daily Summary

Daily Weather History Graph

Daily Weather History Graph

Search for Another Location

Airport or City:

Trip Planner

Search our weather history database for the weather conditions in past years. The results will help you decide how hot, cold, wet, or windy it might be!

Date:

Astronomy

Nov. 01, 2011 Rise Set
Actual Time 6:49 AM MST 5:28 PM MST
Civil Twilight 6:22 AM MST 5:55 PM MST
Nautical Twilight 5:52 AM MST 6:26 PM MST
Astronomical Twilight 5:21 AM MST 6:56 PM MST
Moon 12:36 PM MST 11:15 PM MST
Length of Visible Light 11h 32m
Length of Day
10h 39m
Waxing Crescent, 41% of the Moon is Illuminated
Nov 1
Waxing Crescent
Nov 2
First Quarter
Nov 10
Full
Nov 18
Last Quarter
Nov 24
New

Hourly Weather History & Observations

Time (MST) Temp. Windchill Dew Point Humidity Pressure Visibility Wind Dir Wind Speed Gust Speed Precip Events Conditions
12:53 AM 52.0 °F - 32.0 °F 47% 29.91 in 10.0 mi West 4.6 mph - N/A   Clear
1:53 AM 48.0 °F - 32.0 °F 54% 29.91 in 10.0 mi Calm Calm - N/A   Clear
2:53 AM 46.9 °F - 30.9 °F 54% 29.89 in 10.0 mi Calm Calm - N/A   Clear
3:53 AM 48.0 °F - 30.9 °F 52% 29.88 in 10.0 mi Calm Calm - N/A   Clear
4:53 AM 46.9 °F - 28.9 °F 50% 29.88 in 10.0 mi SSE 3.5 mph - N/A   Clear
5:53 AM 44.6 °F - 30.2 °F 57% 29.97 in 10.0 mi Calm Calm - N/A   Clear
6:53 AM 46.0 °F - 28.9 °F 51% 29.88 in 10.0 mi Calm Calm - N/A   Clear
7:53 AM 51.1 °F - 30.0 °F 44% 29.88 in 10.0 mi Calm Calm - N/A   Clear
8:53 AM 53.1 °F - 30.0 °F 41% 29.87 in 10.0 mi NNE 3.5 mph - N/A   Clear
9:53 AM 55.0 °F - 26.1 °F 33% 29.85 in 10.0 mi Calm Calm - N/A   Clear
10:53 AM 57.9 °F - 28.9 °F 33% 29.83 in 10.0 mi North 4.6 mph - N/A   Clear
11:53 AM 63.0 °F - 28.0 °F 27% 29.80 in 10.0 mi Variable 5.8 mph - N/A   Clear
12:53 PM 66.0 °F - 28.0 °F 24% 29.75 in 10.0 mi SE 3.5 mph - N/A   Clear
1:53 PM 66.9 °F - 27.0 °F 22% 29.74 in 10.0 mi Calm Calm - N/A   Clear
2:53 PM 72.0 °F - 21.0 °F 15% 29.71 in 10.0 mi Variable 4.6 mph - N/A   Clear
3:53 PM 71.6 °F - 17.6 °F 13% 29.84 in 10.0 mi West 11.5 mph 27.6 mph N/A   Clear
4:53 PM 68.0 °F - 19.0 °F 15% 29.75 in 10.0 mi West 15.0 mph 25.3 mph N/A   Clear
5:53 PM 55.0 °F - 27.0 °F 34% 29.88 in 10.0 mi WNW 19.6 mph 31.1 mph N/A   Clear
6:53 PM 51.1 °F - 23.0 °F 33% 29.94 in 10.0 mi West 9.2 mph 25.3 mph N/A   Partly Cloudy
7:53 PM 48.0 °F - 12.0 °F 24% 29.99 in 10.0 mi West 17.3 mph 29.9 mph N/A   Clear
8:53 PM 46.0 °F 41.0 °F 10.0 °F 23% 30.04 in 10.0 mi West 10.4 mph 29.9 mph N/A   Clear
9:53 PM 45.0 °F 40.6 °F 8.1 °F 22% 30.07 in 10.0 mi West 8.1 mph - N/A   Clear
10:53 PM 45.0 °F 37.9 °F 7.0 °F 21% 30.09 in 10.0 mi WNW 16.1 mph 31.1 mph N/A   Clear
11:53 PM 44.1 °F 37.7 °F 9.0 °F 24% 30.10 in 10.0 mi WNW 12.7 mph 23.0 mph N/A   Clear